GFSMW_250_spd_057.txt.gz
Wind_Speed
28 21 23 27 21 12 7 8 14 16 16 20 18 15 13 14 13 14 14 13 11 14 13 15 16 18 20 20 21 24 27 31 33 30 28 28 27 28 28 30 26 18 5
34 28 33 24 19 10 10 11 15 17 16 19 19 18 11 12 13 13 12 11 10 11 11 12 13 15 18 19 20 23 27 28 30 32 31 26 25 29 31 31 29 25 16
37 38 24 16 16 11 12 14 17 20 18 17 20 19 16 14 12 12 12 11 10 9 8 9 12 14 15 16 17 21 24 26 28 30 30 32 27 25 29 32 32 27 26
26 25 15 15 14 13 15 15 19 19 20 22 22 20 18 16 12 11 11 10 9 7 4 5 9 12 12 13 15 17 21 24 26 26 29 30 32 29 28 29 31 31 28
19 15 16 17 18 15 17 16 21 20 21 23 24 23 20 17 14 11 10 8 6 7 4 3 4 8 9 9 11 14 18 20 24 27 26 28 29 33 33 28 29 34 31
19 15 19 21 21 19 19 16 20 21 22 26 27 26 24 20 17 12 10 9 7 8 4 2 3 5 6 6 6 11 15 19 20 23 24 25 25 29 32 32 29 32 33
24 21 21 25 25 21 19 17 16 22 24 27 27 31 28 25 21 17 12 9 8 6 6 3 3 2 3 5 7 11 14 16 17 18 21 23 24 24 28 30 32 29 30
27 20 20 27 27 24 20 16 14 19 24 26 30 31 31 29 25 21 17 13 10 9 6 5 3 2 1 2 4 7 10 13 14 15 18 19 21 22 23 26 28 30 29
31 26 22 28 29 22 19 17 17 18 23 24 27 31 30 32 29 24 20 18 14 11 10 7 6 5 5 3 2 5 8 11 11 12 14 17 17 18 21 21 24 25 29
38 29 28 28 32 27 21 19 18 20 21 22 23 30 31 29 29 27 24 21 19 15 13 11 10 9 8 7 4 3 5 9 12 10 9 14 16 17 20 18 20 21 23
48 31 33 32 34 30 28 22 21 23 23 22 21 28 32 33 31 31 28 25 23 19 17 16 13 12 11 11 9 7 6 7 9 9 6 10 12 15 17 18 17 18 21
50 55 50 39 37 37 35 27 25 24 24 24 22 25 29 30 33 32 31 29 28 25 23 21 18 17 14 12 12 12 9 8 9 10 9 7 8 11 14 16 17 17 17
56 65 57 49 47 39 37 31 30 29 25 23 23 25 28 31 33 33 33 33 32 30 28 25 23 21 19 17 15 15 14 12 11 12 12 13 12 11 12 13 14 16 17
60 62 55 56 46 39 35 34 30 35 31 27 25 26 28 28 27 30 32 32 32 30 29 26 25 24 22 20 18 19 17 15 15 15 16 17 17 16 15 14 15 15 16
76 72 71 60 51 45 42 40 34 37 37 32 30 25 25 25 25 27 26 26 25 26 26 24 26 25 23 21 20 20 19 18 18 18 19 20 21 22 21 21 22 22 21
78 73 75 74 49 45 43 44 43 42 39 36 35 30 26 23 26 26 26 25 26 26 27 27 25 26 25 23 24 25 23 22 20 21 22 22 22 25 25 26 26 25 25
81 77 70 71 57 53 49 38 42 42 47 42 39 37 33 30 29 27 28 28 27 25 28 29 30 29 29 27 28 29 28 27 25 24 24 26 27 27 28 29 29 29 29
82 85 79 70 67 57 41 37 43 53 52 48 43 41 40 37 34 30 30 29 28 27 27 26 28 29 29 29 30 30 29 28 27 26 27 28 29 31 31 31 32 32 32
88 89 75 66 57 63 55 36 28 63 56 53 50 45 42 41 38 36 32 30 29 29 29 29 28 30 30 31 31 32 33 32 31 31 30 30 31 31 33 33 33 34 34
98 91 82 79 74 61 46 64 50 49 58 63 58 52 45 45 43 39 37 34 32 31 29 28 28 28 29 30 31 32 33 32 30 31 29 28 28 29 32 33 34 34 35
110 108 100 94 95 82 60 60 67 57 60 66 66 54 51 47 45 41 40 39 36 32 31 31 30 30 30 31 32 33 34 35 31 31 31 30 30 31 32 33 33 32 31
114 117 112 106 100 97 84 74 71 72 59 59 61 58 54 50 48 45 43 41 39 35 35 35 33 34 33 31 30 32 35 36 32 33 34 34 34 35 34 34 33 34 33
116 116 117 113 104 102 99 93 91 72 71 51 54 55 58 53 51 49 45 43 41 40 39 38 38 36 34 33 32 33 35 36 34 34 35 35 34 35 35 36 36 35 34
123 119 119 114 110 109 105 103 100 86 81 73 65 58 58 57 56 52 48 46 45 44 43 42 43 40 36 36 35 34 34 36 37 36 34 33 34 34 34 34 32 31 33
127 123 117 117 114 113 110 105 107 103 95 86 76 72 67 66 62 56 52 50 48 47 48 48 46 43 41 41 38 36 34 34 38 36 34 35 36 33 33 34 31 28 27
128 127 121 121 117 112 111 109 108 104 99 94 86 79 75 72 67 59 56 55 55 53 53 51 50 48 48 46 42 39 36 36 36 33 33 34 33 33 36 35 28 29 28

GFSMW_250_spd_060.txt.gz
Wind_Speed
22 25 20 19 27 16 6 9 9 16 18 14 15 14 15 13 12 9 9 10 12 14 15 15 16 15 18 21 22 23 26 27 29 29 26 27 29 31 27 23 19 5 6
28 23 24 23 26 15 9 11 12 18 20 18 17 16 14 12 12 10 8 9 10 12 13 12 12 14 16 19 20 22 23 25 26 30 29 29 28 29 30 26 29 18 5
30 20 18 27 20 12 13 15 15 21 21 23 20 18 15 15 13 10 9 8 8 7 10 12 10 10 12 15 17 20 22 23 23 26 30 32 31 30 31 33 31 32 22
33 27 21 24 18 15 16 18 18 23 24 23 23 21 17 16 12 10 8 7 7 5 6 6 7 7 10 12 16 18 20 23 23 23 25 28 32 31 31 31 35 36 35
33 30 23 33 20 17 18 19 19 23 27 25 27 23 21 17 13 9 8 7 6 5 5 4 4 5 5 8 13 17 17 20 21 21 21 24 28 30 33 31 30 35 37
35 28 30 28 18 20 20 20 21 23 29 29 28 28 24 20 16 12 9 7 5 5 2 0 1 3 4 7 10 14 16 16 18 19 20 21 25 27 30 32 31 33 34
37 37 35 21 18 23 20 18 19 19 27 32 31 31 27 24 20 17 12 10 6 5 5 3 2 1 1 3 7 10 13 15 14 17 19 20 22 23 25 27 31 32 31
39 38 36 28 21 25 19 19 20 20 24 28 33 33 32 28 24 21 16 11 8 8 7 6 5 5 5 3 5 6 10 14 12 13 17 18 21 21 21 23 26 27 29
42 37 39 27 22 29 20 19 21 21 20 25 29 32 33 31 28 25 21 17 12 11 10 8 7 6 6 5 4 6 8 9 10 9 13 16 18 20 18 19 21 22 24
44 41 37 27 26 30 27 23 21 23 22 25 25 29 30 32 31 28 24 21 18 17 14 13 12 9 10 7 6 6 8 10 11 9 8 11 14 17 18 19 19 20 21
47 42 34 29 30 30 28 24 23 21 24 25 25 29 32 31 33 32 29 26 23 22 19 18 16 13 11 10 9 8 8 9 10 10 8 9 11 12 14 16 17 19 20
55 45 44 35 36 33 34 30 29 25 24 23 25 23 30 32 31 32 32 31 28 26 25 22 20 18 15 14 12 11 9 10 11 11 10 10 11 13 13 14 16 16 17
60 54 50 39 39 35 34 33 31 27 25 25 23 24 26 33 35 34 32 31 31 30 29 26 23 23 21 18 17 17 15 13 13 12 13 13 12 13 15 16 17 18 20
56 57 53 55 46 41 37 35 33 31 29 26 26 27 25 25 29 30 32 32 30 29 29 27 25 25 24 23 21 21 20 17 16 16 15 15 15 15 16 18 21 22 23
60 65 62 62 53 46 41 38 35 36 35 33 30 27 25 23 22 27 28 29 31 31 30 29 26 25 23 24 24 22 21 20 19 19 19 18 18 18 17 18 20 20 21
69 72 66 68 62 54 49 42 42 40 39 40 37 31 30 28 29 26 25 24 24 23 24 24 23 23 21 21 23 24 22 22 23 22 23 22 22 22 21 22 22 21 23
74 75 72 66 62 62 57 47 49 46 42 39 41 37 33 33 31 29 27 27 27 25 24 24 25 25 24 24 25 26 26 26 25 25 25 25 24 25 26 26 26 25 25
80 79 76 70 65 66 64 60 55 47 42 45 45 44 37 36 36 32 31 29 30 30 28 26 24 23 23 21 24 26 27 26 26 26 27 27 28 30 30 27 25 25 27
91 88 82 78 73 70 65 66 59 53 50 47 52 50 47 39 41 39 33 26 23 22 26 26 24 23 23 23 23 25 28 28 27 26 27 27 27 28 26 24 23 23 22
101 96 91 86 80 75 56 68 69 60 57 53 54 56 55 45 45 45 37 30 26 25 21 22 24 24 23 22 22 24 26 26 24 25 28 27 25 25 25 25 25 25 21
107 103 98 94 87 79 62 70 75 68 62 61 57 55 55 51 47 43 39 35 31 29 27 25 24 25 24 23 24 25 25 27 25 25 27 27 27 27 28 28 27 25 25
113 109 105 102 96 94 85 73 69 69 58 49 57 53 54 53 55 50 41 40 35 32 32 28 28 29 27 27 27 27 29 28 29 30 28 29 28 29 28 30 29 26 26
113 116 110 106 101 98 93 82 75 68 66 58 52 56 50 52 53 52 56 43 40 37 36 34 33 34 32 30 30 29 30 30 30 28 28 30 29 30 30 30 28 27 25
118 116 115 110 105 103 96 90 85 77 67 71 67 66 59 59 57 60 51 48 43 43 40 37 36 36 35 36 36 34 32 32 32 31 27 29 30 30 33 31 32 31 25
123 122 118 117 109 108 103 97 93 86 74 61 74 72 69 64 61 60 56 57 50 46 44 42 40 40 39 40 39 38 36 36 37 35 33 32 30 31 31 32 34 33 27
127 128 124 120 116 116 111 102 101 94 91 85 73 74 67 63 67 65 57 59 54 51 49 45 44 43 43 43 43 41 40 39 38 37 37 36 33 33 34 34 34 32 34

GFSMW_250_spd_063.txt.gz
Wind_Speed
20 14 15 11 15 20 13 11 9 12 14 11 13 14 14 12 10 11 11 12 13 14 13 14 16 19 21 22 24 26 28 32 35 36 32 32 32 29 29 22 10 4 10
22 15 12 17 16 21 13 12 11 14 16 16 14 15 16 13 9 11 8 11 11 14 13 12 13 15 17 21 26 25 24 25 30 33 33 33 32 33 34 30 24 9 6
25 16 24 18 14 18 14 13 14 16 20 20 16 17 16 14 13 12 9 11 8 11 11 11 10 10 15 19 22 21 22 21 23 28 30 34 32 30 33 34 31 28 11
29 28 27 23 22 23 18 17 16 17 24 22 20 18 18 16 14 13 10 10 8 8 7 8 8 7 10 16 18 17 19 21 20 22 27 30 34 32 32 34 35 37 34
34 38 33 26 24 25 21 20 18 19 26 26 24 21 18 17 13 12 11 9 9 7 7 5 7 5 7 11 14 16 16 20 19 21 23 25 30 32 31 32 35 38 40
41 39 36 28 21 21 24 24 20 22 23 28 27 24 22 18 14 13 13 10 8 8 5 4 5 2 4 8 12 13 16 17 18 21 23 23 25 27 29 31 33 32 32
47 44 40 33 25 19 26 21 19 24 23 29 28 28 26 24 19 16 15 14 10 9 7 4 3 1 2 5 8 11 13 14 15 20 21 22 21 24 27 28 28 31 33
54 48 43 39 33 27 26 23 18 24 21 24 31 30 30 27 24 21 17 16 14 10 6 3 3 1 2 3 4 6 11 13 12 16 17 20 21 22 23 25 25 26 27
57 54 47 40 37 38 34 27 20 24 22 22 29 33 32 31 28 24 21 18 15 12 10 6 5 3 3 3 2 4 7 11 11 10 13 14 16 18 21 22 23 24 24
49 56 50 38 38 36 37 33 27 29 26 24 26 30 33 34 32 28 26 22 18 15 13 10 10 8 6 4 3 3 4 6 9 9 8 9 12 15 17 18 19 20 20
43 44 45 39 34 41 40 36 28 28 32 30 28 29 33 33 33 33 31 27 23 20 18 15 14 11 10 5 4 4 4 5 5 7 9 8 9 10 12 15 16 17 18
50 50 46 43 46 42 37 36 32 31 32 25 28 29 30 34 34 35 33 31 28 25 22 22 19 15 13 10 7 7 6 6 6 6 8 9 10 11 11 13 15 17 19
52 52 48 47 47 41 40 37 35 30 32 25 25 28 29 31 33 35 36 34 32 29 27 26 23 20 16 15 14 12 10 11 12 10 9 10 11 12 13 14 16 18 18
59 52 59 53 52 46 43 39 36 31 31 28 26 27 30 29 32 35 35 34 34 33 30 28 25 23 21 18 16 15 13 14 12 11 12 13 14 14 15 16 16 17 18
66 58 59 64 52 47 47 47 41 36 34 32 28 28 26 22 22 31 36 36 35 33 30 29 27 25 22 19 17 18 16 14 13 12 14 15 16 17 17 18 19 20 21
74 69 66 63 55 53 52 50 44 40 39 39 35 30 25 26 23 21 27 32 33 32 31 28 26 24 21 18 16 15 16 16 16 16 16 16 17 18 19 20 23 22 22
80 76 72 64 60 62 59 58 51 48 45 40 38 35 32 29 26 24 21 23 26 25 27 26 22 21 19 18 18 17 16 17 18 18 17 17 19 20 21 23 24 22 22
85 82 79 72 63 68 69 67 60 53 49 45 43 41 37 34 30 28 27 26 26 27 27 26 25 23 20 18 18 17 18 18 17 18 19 19 20 21 22 23 21 20 18
89 87 87 85 84 77 71 72 67 59 54 51 50 44 41 38 35 34 33 29 28 29 31 29 27 25 21 20 20 19 20 19 18 17 17 17 19 21 23 22 21 20 19
92 93 91 93 89 83 82 80 74 69 63 56 53 50 46 42 39 37 36 36 32 29 25 25 27 26 22 22 20 19 17 16 14 14 15 17 16 17 20 22 22 23 20
99 97 97 97 97 93 85 88 81 78 72 66 58 57 50 46 45 42 40 39 39 31 27 23 24 23 20 19 18 17 18 17 15 16 16 16 17 17 19 23 23 22 23
105 101 99 99 102 99 95 92 86 81 80 75 67 64 57 49 48 47 46 43 44 37 32 30 29 28 25 22 21 20 22 18 17 16 15 17 18 18 19 22 23 20 22
109 107 102 101 98 104 101 96 91 82 83 85 78 68 65 59 53 47 46 45 48 44 40 34 34 33 30 29 28 26 26 23 21 19 16 17 19 20 23 22 23 22 23
114 111 108 104 103 106 106 101 100 86 88 88 85 76 69 64 59 55 54 53 51 47 47 41 38 36 31 33 33 29 28 27 27 24 20 18 22 23 25 25 23 22 24
119 117 114 111 109 108 108 106 103 94 87 89 88 84 78 68 65 61 58 57 57 48 53 47 43 39 34 36 35 31 30 30 29 27 27 27 27 26 27 30 29 27 28
122 120 117 117 117 113 111 110 109 100 93 91 83 81 82 74 67 61 61 62 59 52 52 55 51 48 43 39 40 34 33 31 29 29 32 33 33 33 33 33 34 32 31

GFSMW_250_spd_069.txt.gz
Wind_Speed
27 18 14 13 14 9 10 18 14 8 6 2 1 2 4 6 7 8 9 11 12 16 18 21 23 25 27 28 29 31 33 36 37 35 35 35 27 18 21 19 19 19 21
27 21 16 16 14 9 9 14 17 9 8 7 4 3 2 3 5 4 5 7 10 13 15 18 21 22 23 26 26 28 30 33 34 34 33 36 38 27 17 19 17 15 13
28 24 21 17 17 16 12 13 16 14 8 10 9 7 4 5 5 3 0 6 7 12 14 14 17 19 19 22 24 26 27 29 31 34 35 36 39 39 29 16 16 15 12
27 28 26 21 22 20 18 11 14 16 11 10 13 11 3 4 6 4 2 6 5 8 10 12 15 15 17 18 21 23 24 26 28 29 31 36 38 39 39 33 18 13 11
29 30 28 25 23 22 17 12 11 15 14 11 13 14 9 6 6 4 4 8 3 4 4 7 9 12 14 17 19 19 21 23 25 27 29 30 34 37 35 36 35 30 22
30 30 31 29 26 26 21 19 10 11 11 11 14 15 14 9 8 8 7 7 7 0 3 6 7 10 10 12 15 16 17 21 22 25 27 27 28 31 32 32 32 29 28
37 33 34 33 31 26 26 23 14 13 10 14 14 16 17 14 10 9 9 9 10 2 2 3 4 6 7 8 11 13 14 17 18 20 23 24 26 29 28 28 27 26 24
44 39 39 35 33 29 29 23 18 18 15 13 17 16 19 18 16 14 11 10 10 8 2 1 2 4 6 6 8 9 11 12 13 14 17 19 20 22 23 24 24 23 23
51 45 44 40 38 35 34 29 24 22 19 17 17 19 21 21 20 19 17 15 11 11 7 4 3 3 5 5 5 5 7 9 9 9 12 12 13 15 16 17 19 18 18
53 49 48 46 44 40 37 34 32 27 23 21 22 22 22 24 24 24 22 21 17 14 11 7 4 4 2 4 4 4 3 5 6 6 6 7 8 9 10 12 13 13 11
54 51 50 47 47 45 44 40 37 32 27 21 21 21 24 26 27 26 27 25 23 20 15 12 8 7 4 1 2 3 3 4 5 6 6 6 8 8 8 9 10 10 9
54 50 49 47 48 45 43 44 42 38 31 27 23 20 26 27 29 29 29 30 26 25 21 18 14 10 9 7 6 6 7 6 5 6 6 7 8 9 10 10 11 11 11
58 54 49 46 47 45 42 41 41 39 33 31 27 24 26 29 26 30 30 30 31 29 26 23 19 16 14 13 10 9 8 9 7 7 4 5 7 8 8 8 9 10 11
64 60 55 50 46 43 44 41 41 39 37 36 33 28 30 31 28 30 30 32 32 31 30 27 24 20 19 18 15 13 12 12 9 8 6 4 6 7 7 7 7 10 9
70 67 63 58 53 46 42 42 38 41 39 35 33 32 32 31 27 27 32 31 33 34 31 30 28 25 21 20 18 16 14 13 12 10 9 9 7 7 6 7 8 9 7
77 73 71 67 62 57 53 47 42 44 45 37 36 33 35 34 32 29 29 32 33 34 33 33 31 29 26 22 20 18 16 14 13 11 12 13 11 10 10 10 8 9 10
83 80 76 74 71 65 59 54 50 52 50 51 40 36 38 37 37 30 28 30 31 29 33 33 32 32 28 25 22 20 19 16 15 13 14 16 15 13 12 13 11 9 8
87 85 82 79 77 73 68 62 57 58 56 54 48 50 43 41 39 34 32 32 31 30 31 32 33 32 30 27 25 22 20 20 17 16 15 16 15 13 14 14 13 11 7
90 89 87 85 83 80 75 71 66 66 67 61 60 59 51 45 42 44 39 36 33 31 30 28 28 30 29 25 23 22 23 22 21 18 15 14 13 11 13 12 11 10 5
95 94 92 90 88 86 83 79 75 72 71 69 63 62 54 51 50 48 45 39 35 31 27 28 29 29 28 27 25 25 25 24 21 16 15 11 9 9 12 10 8 4 6
100 98 97 96 93 91 89 85 83 79 74 73 71 69 65 58 58 55 50 46 41 36 33 32 31 30 29 28 29 29 28 28 19 16 16 14 12 12 13 11 5 3 9
108 104 101 101 100 96 94 91 89 86 82 77 77 73 73 64 62 59 56 50 47 42 40 35 32 32 32 28 25 26 29 26 21 19 17 16 14 13 14 16 9 6 8
115 114 109 105 104 104 100 98 95 90 87 84 79 80 76 72 67 64 62 55 53 48 41 39 38 37 34 32 28 25 27 24 22 21 18 15 16 18 21 17 11 9 10
120 119 117 114 111 108 106 104 101 97 92 89 86 83 84 80 76 70 67 60 55 54 50 45 45 38 35 35 34 30 26 25 24 23 20 21 25 27 23 18 15 13 14
125 123 122 120 119 117 112 109 108 103 98 95 92 89 88 86 82 77 74 67 62 58 54 51 48 44 44 44 38 35 31 29 31 27 27 29 28 26 26 25 22 20 20
126 125 127 126 125 123 120 118 113 108 105 102 98 95 92 90 89 85 79 73 67 66 63 58 53 52 50 45 42 36 33 30 31 32 34 34 30 30 28 28 27 27 25

GFSMW_250_spd_072.txt.gz
Wind_Speed
20 18 16 12 10 4 7 14 16 15 6 1 5 4 4 7 12 12 14 16 18 17 21 22 22 26 27 29 31 32 33 35 37 36 25 18 21 23 22 22 21 19 18
26 23 21 16 14 8 6 9 13 14 11 4 5 6 3 1 7 7 10 12 15 14 18 21 22 23 25 26 28 30 31 34 36 38 36 22 18 19 22 20 18 18 15
28 24 23 21 16 14 11 7 9 10 11 10 5 6 5 1 1 4 4 9 10 12 14 18 20 21 23 23 26 28 29 30 32 34 37 37 21 17 16 15 14 12 10
31 25 25 23 22 20 15 9 7 9 10 9 8 6 6 5 3 1 4 4 5 7 11 12 16 18 20 21 22 25 27 28 31 31 33 36 37 30 15 11 8 7 5
35 29 25 26 26 22 19 13 9 9 10 7 8 8 8 6 5 3 3 2 4 5 8 9 12 14 16 19 19 21 23 25 28 30 31 32 34 34 34 31 24 19 16
37 34 30 31 30 24 22 18 12 10 9 8 7 10 10 10 8 6 5 1 2 4 7 7 9 11 12 15 17 17 19 22 24 26 28 30 31 30 30 30 28 25 22
42 38 35 33 34 28 25 22 16 10 10 11 8 9 13 14 10 8 8 4 3 2 5 3 5 7 6 10 13 14 14 15 18 20 22 24 26 27 27 26 24 22 20
47 43 42 36 37 32 26 25 18 13 13 11 8 7 12 15 13 13 11 8 5 3 3 2 4 5 6 7 9 10 10 10 12 14 16 18 19 20 21 21 22 20 19
53 48 46 42 38 35 30 28 24 20 15 16 14 10 12 14 16 16 15 12 8 5 4 3 2 2 4 4 5 5 7 6 7 8 10 11 12 14 15 16 15 12 11
57 55 51 48 45 40 34 33 31 29 24 22 20 15 12 15 19 20 19 17 13 10 7 5 4 3 0 2 2 4 4 4 4 4 6 7 7 8 10 10 11 9 8
57 54 51 51 48 45 41 40 37 36 32 26 24 19 14 16 20 22 23 22 18 15 12 9 8 4 4 3 1 1 3 4 4 4 3 3 4 6 7 8 9 8 8
61 54 53 49 46 45 46 46 44 42 38 34 29 24 21 20 21 24 25 26 22 20 18 16 13 10 6 6 5 4 3 4 3 4 3 1 3 4 4 4 5 6 7
61 58 54 51 48 48 48 48 48 46 44 39 38 32 28 26 23 23 25 28 28 27 23 21 20 17 12 8 7 7 7 6 6 5 3 4 2 3 4 3 3 4 5
64 61 57 54 51 49 48 48 47 45 44 43 41 36 35 32 27 27 27 26 31 31 30 27 25 22 18 15 12 10 9 10 8 7 5 4 5 6 5 4 5 6 6
70 67 63 59 55 52 50 48 48 45 43 44 41 38 36 34 29 29 31 28 29 34 34 33 31 28 24 20 17 15 12 11 11 8 9 6 5 6 6 6 7 6 6
77 74 70 66 62 59 54 51 45 48 48 46 46 41 38 38 34 31 32 29 29 30 34 36 35 33 30 26 23 20 16 15 15 13 10 9 10 9 8 7 5 7 8
85 81 77 73 69 66 62 58 55 47 47 50 46 48 34 35 37 32 32 32 31 30 32 34 36 36 34 31 28 25 22 20 20 18 16 13 13 11 10 10 8 7 7
91 88 84 80 77 72 69 66 63 58 53 47 46 46 49 41 33 29 35 35 32 30 32 32 35 37 36 34 32 29 26 25 24 23 20 19 17 12 12 13 12 11 8
95 92 89 86 83 80 76 74 72 67 61 56 50 50 48 47 40 32 38 40 36 33 34 35 33 36 37 36 34 32 31 29 28 26 24 21 19 15 14 13 12 12 9
98 96 94 89 87 85 83 81 79 75 70 64 59 56 57 51 53 45 49 42 42 39 36 36 36 36 37 37 35 34 33 32 31 26 26 24 20 16 15 16 14 12 12
101 99 97 96 93 90 87 86 85 82 78 74 68 65 66 58 61 62 50 45 45 43 39 38 37 37 37 35 32 30 31 34 29 24 25 23 21 20 19 18 16 15 16
105 104 102 99 97 95 93 91 89 88 86 82 78 71 70 72 69 62 60 55 50 48 45 42 39 38 36 33 33 30 32 32 27 26 25 25 24 23 22 22 19 17 18
112 110 107 105 103 100 97 96 93 92 90 88 85 81 76 75 73 70 67 62 59 53 51 49 44 42 39 37 33 31 33 34 33 30 30 28 27 26 27 28 19 17 17
119 118 115 112 109 106 104 102 99 97 95 95 91 87 84 81 78 76 71 64 63 59 57 55 51 47 43 40 34 33 32 32 32 32 30 29 30 33 34 32 20 18 20
125 123 122 121 119 117 112 108 107 103 101 99 97 93 91 89 82 80 79 72 70 66 62 60 59 54 49 45 39 36 33 32 32 31 30 33 36 38 37 33 26 24 23
130 130 128 126 126 125 123 118 114 112 108 105 104 100 95 94 89 86 84 79 77 73 68 66 62 61 55 48 45 39 39 38 37 35 35 37 38 39 37 33 31 28 29

GFSMW_250_spd_075.txt.gz
Wind_Speed
21 20 17 11 14 8 9 10 13 9 6 4 2 2 5 10 13 15 16 18 20 23 23 24 26 28 28 31 32 34 37 37 24 16 19 20 18 18 21 21 18 16 14
21 22 20 15 16 12 10 7 10 11 4 4 4 5 4 4 8 9 12 14 18 20 20 22 23 25 26 29 32 33 34 36 36 18 19 19 19 18 17 13 11 9 7
23 24 22 19 16 18 14 10 9 9 10 2 5 6 5 4 3 5 8 11 14 14 16 18 20 21 23 26 29 30 33 33 36 35 18 17 14 13 11 9 9 6 3
27 28 29 22 17 19 17 12 9 7 12 6 3 5 4 5 1 1 3 8 9 13 12 14 16 18 20 23 25 27 30 32 32 36 36 19 13 8 6 4 3 3 3
32 27 30 26 22 19 18 14 11 8 7 11 2 4 8 7 4 2 2 3 7 11 10 11 12 14 17 19 21 23 25 29 30 31 32 33 31 23 17 16 15 17 18
38 32 31 31 27 23 20 17 14 8 5 8 8 3 10 10 7 5 3 1 3 6 8 8 8 10 12 15 16 18 20 23 25 26 28 29 27 25 22 22 22 23 22
41 36 32 32 29 26 24 20 19 13 8 5 6 5 7 10 11 8 6 2 1 3 6 5 5 6 8 10 12 13 15 17 19 21 22 23 24 24 22 22 23 21 19
43 40 37 34 32 30 27 23 21 18 13 10 7 4 5 8 11 13 9 6 4 2 3 4 3 6 6 6 8 10 11 12 13 14 15 16 17 18 17 16 17 16 15
48 45 43 40 37 35 32 28 24 22 19 15 13 10 7 7 13 15 14 11 8 5 3 3 2 2 5 4 3 6 8 8 8 9 9 9 11 12 13 13 11 11 10
49 48 45 45 43 41 38 34 31 27 25 24 21 17 15 13 13 17 17 17 13 9 7 5 3 4 1 3 3 4 4 6 5 5 5 5 6 8 9 10 9 8 8
55 52 48 48 45 44 43 38 35 35 34 31 27 24 20 17 16 18 20 21 19 17 14 9 7 5 4 2 1 1 3 4 5 5 3 1 3 5 6 6 6 6 7
62 46 49 43 42 44 40 45 44 44 41 38 35 30 26 24 22 19 21 24 24 23 21 16 13 11 9 6 5 3 3 3 5 6 6 3 4 4 3 3 3 5 6
67 57 50 44 49 38 40 42 44 46 44 44 40 37 34 31 27 25 23 24 26 27 27 23 19 17 15 11 8 6 5 4 5 7 7 4 3 4 6 4 4 5 7
69 66 57 50 51 54 37 44 49 46 46 44 46 42 40 38 33 30 29 29 29 30 32 29 26 23 19 17 14 12 9 7 5 6 8 7 6 4 4 4 5 7 7
70 68 66 64 62 58 59 48 48 50 48 48 48 44 44 41 36 34 34 29 33 30 31 33 33 31 27 23 20 17 15 12 10 9 10 10 9 7 6 6 6 5 6
74 71 69 66 65 60 61 55 50 47 44 47 51 49 48 43 38 37 34 32 32 33 29 29 34 34 34 31 27 24 21 18 16 14 14 13 14 12 11 9 8 8 8
80 76 74 71 68 68 65 63 60 58 56 54 52 50 48 46 37 36 36 38 35 35 34 31 29 32 32 34 32 31 28 25 21 20 18 17 17 15 13 13 12 12 11
86 83 79 77 75 72 69 66 64 61 59 56 53 53 51 49 47 35 37 40 40 37 37 34 32 32 34 35 36 35 32 30 27 24 23 22 21 19 15 16 16 16 14
94 90 87 84 81 78 75 72 70 66 63 59 56 53 49 52 50 45 36 40 42 39 37 35 32 32 35 34 36 37 37 36 34 31 28 25 23 21 18 18 16 17 16
101 99 96 93 89 86 83 80 77 73 71 68 64 59 52 49 52 53 45 37 38 37 38 38 35 34 36 36 35 37 39 39 39 32 28 26 25 21 19 20 19 20 16
108 105 103 100 97 94 91 88 85 81 78 75 71 67 61 56 51 53 59 55 46 40 38 42 41 37 37 35 35 35 39 41 40 33 32 29 26 22 19 21 24 21 19
109 108 108 105 103 101 98 95 93 89 86 83 79 76 70 65 60 55 56 57 57 54 51 47 43 42 38 39 36 34 38 43 40 37 36 33 28 24 23 25 29 23 22
113 112 110 109 108 106 103 101 99 96 93 89 86 84 80 74 69 64 64 61 60 63 58 52 46 42 41 38 38 35 36 39 39 40 36 31 29 28 29 31 34 28 26
117 116 116 114 112 110 107 105 102 99 97 95 91 89 87 84 79 74 71 71 68 64 61 54 52 46 44 44 40 38 36 37 38 41 38 34 32 33 37 40 39 31 26
125 123 120 119 118 116 114 110 107 103 100 98 97 94 91 89 87 83 80 76 78 75 70 63 61 57 51 51 45 39 42 41 40 43 41 38 37 40 41 42 42 33 27
130 130 130 128 126 124 121 118 114 110 106 102 100 98 96 94 92 89 86 85 82 81 77 75 70 65 62 58 47 47 45 45 45 44 42 39 38 44 47 45 44 38 29

GFSMW_250_spd_078.txt.gz
Wind_Speed
21 16 16 15 14 16 16 12 16 16 11 10 9 8 11 13 14 16 17 18 21 23 25 25 27 30 30 31 32 34 26 16 13 16 17 18 20 20 19 17 15 14 11
24 19 17 14 11 13 16 14 12 14 15 8 7 8 9 9 12 11 12 15 18 19 22 23 24 27 28 30 32 34 34 18 19 15 15 18 19 17 14 10 8 6 4
28 21 19 14 13 15 11 15 12 10 16 12 6 6 6 7 3 5 10 10 17 16 19 20 21 24 28 29 31 33 34 30 21 18 14 12 11 9 6 4 3 4 4
30 24 21 17 15 14 15 13 12 9 10 16 8 2 2 5 7 7 8 10 14 13 16 18 19 20 23 25 28 31 32 32 28 18 14 12 10 8 5 4 4 5 8
34 26 23 20 19 16 16 15 13 10 6 10 12 5 2 4 6 9 6 7 9 11 14 15 15 17 19 20 22 25 28 30 29 30 24 18 16 16 18 16 19 19 21
39 33 28 25 21 18 17 16 15 15 8 4 9 8 3 4 11 7 5 4 5 7 7 12 10 12 14 15 17 19 22 25 25 24 22 22 21 21 20 20 21 20 18
31 30 30 29 23 22 20 18 15 16 12 9 7 7 5 4 7 5 4 4 2 2 5 5 9 9 10 12 13 14 16 18 19 20 20 20 20 21 19 19 19 19 18
47 40 38 29 27 24 24 21 17 17 16 14 12 7 5 4 5 13 11 7 4 2 2 2 4 7 7 8 10 11 12 12 13 14 15 16 16 17 15 13 13 13 12
38 38 40 36 30 30 28 26 22 19 19 18 17 12 11 9 10 12 12 10 7 3 1 4 2 2 5 5 6 7 8 10 11 10 10 11 12 12 12 10 9 10 9
43 37 45 41 39 43 38 33 27 25 23 23 21 20 16 15 14 15 16 11 7 5 5 6 8 3 1 3 4 5 5 6 8 8 7 8 9 10 10 9 8 8 8
55 46 42 41 39 40 33 33 31 30 28 27 25 24 22 21 19 19 22 16 10 15 20 23 15 7 5 2 2 3 3 2 4 6 6 6 6 8 8 8 9 11 10
62 58 44 28 29 32 38 42 32 26 30 32 32 30 30 27 23 22 23 24 16 18 21 21 19 11 10 7 7 6 4 2 1 2 3 4 4 5 7 6 6 10 12
68 67 64 43 47 28 23 24 28 28 32 38 38 34 31 33 30 27 27 28 24 22 24 24 22 21 17 14 12 10 9 9 6 5 3 2 4 3 3 5 5 6 8
73 71 67 65 53 47 40 40 27 25 37 34 37 30 28 37 36 34 32 30 29 27 26 28 29 29 28 21 17 17 14 10 10 8 7 6 6 6 6 6 7 7 8
76 74 72 71 73 67 66 54 49 51 54 36 28 24 28 40 30 38 39 34 34 33 31 30 30 29 28 26 24 22 20 20 19 15 11 9 10 8 7 7 9 10 9
76 75 75 78 77 73 71 61 49 55 59 55 58 42 48 38 42 50 43 39 35 35 35 32 31 30 30 30 30 29 28 25 24 21 18 13 12 11 12 10 10 12 12
79 77 74 73 74 74 69 66 67 60 58 57 58 56 57 61 48 37 38 40 39 38 36 38 35 33 31 30 30 33 33 31 29 27 22 19 16 15 15 13 12 13 14
85 81 79 76 75 74 75 72 75 63 54 57 60 63 61 60 57 58 45 50 43 39 41 39 38 37 38 35 34 33 35 37 34 32 29 25 22 19 18 18 15 14 15
92 87 85 81 79 78 80 79 81 81 73 72 63 60 60 58 56 58 51 43 42 44 44 44 41 40 39 37 36 35 34 35 37 36 34 31 29 23 20 21 18 19 18
97 95 92 89 85 83 82 83 83 84 85 80 80 73 67 66 63 61 53 55 49 45 42 44 45 42 41 39 35 35 35 36 38 35 33 32 31 26 22 22 21 24 18
103 101 100 97 94 91 88 87 84 83 82 76 83 77 71 70 68 62 55 51 54 53 47 45 43 42 42 40 39 35 35 39 39 36 36 36 33 29 26 26 27 28 21
110 108 104 104 102 100 97 94 92 89 88 85 84 80 76 73 69 64 59 55 52 55 50 41 42 43 37 41 40 37 34 39 38 37 38 38 35 32 30 29 30 30 26
116 114 112 110 108 107 105 103 100 98 96 93 90 88 85 81 76 72 67 62 57 53 59 60 54 49 43 42 42 40 37 37 36 37 35 37 37 36 34 31 33 35 31
116 118 118 115 113 111 111 110 108 105 103 101 99 96 93 89 85 80 75 71 66 61 59 61 65 58 54 53 47 42 38 37 34 39 36 34 36 36 36 36 38 38 35
115 118 122 122 120 118 116 115 114 112 111 109 107 104 101 97 93 89 84 79 76 71 67 66 64 63 64 64 61 52 44 36 34 38 39 39 39 38 38 40 40 41 40
114 119 122 125 126 125 123 121 119 117 116 114 113 110 108 105 101 97 93 88 84 81 76 72 72 70 67 66 68 59 53 48 41 41 41 40 39 42 42 41 43 44 43

GFSMW_250_spd_084.txt.gz
Wind_Speed
12 8 8 5 5 8 12 14 17 19 16 12 14 13 13 16 20 19 19 18 23 26 27 31 35 36 35 22 23 23 24 24 26 27 24 23 24 22 18 15 11 8 9
16 11 8 4 7 3 8 11 14 15 16 13 10 10 11 13 14 16 19 16 20 21 25 29 32 35 35 26 24 23 23 22 22 23 22 20 17 17 12 10 9 7 9
18 13 9 7 8 5 3 7 10 11 14 15 14 10 9 11 12 11 16 16 17 17 20 24 27 30 33 30 21 22 22 19 18 16 15 15 13 11 10 10 7 9 17
19 22 13 12 9 8 3 3 7 7 9 11 15 10 6 7 13 12 11 12 12 15 18 18 22 25 28 29 29 22 20 17 15 14 14 12 11 9 8 11 17 17 16
20 21 20 15 11 13 8 1 4 4 4 5 9 11 5 3 5 9 7 12 12 10 14 14 17 19 22 24 25 25 24 22 20 20 20 19 18 17 16 15 15 15 16
24 21 22 21 19 16 12 7 4 4 4 4 6 9 10 6 5 4 3 7 8 9 10 11 11 13 17 19 19 21 21 22 21 21 21 19 18 18 17 18 15 14 14
31 35 32 24 19 19 23 16 8 7 7 6 5 4 6 7 7 4 5 5 6 8 9 8 8 9 11 13 14 14 16 16 18 17 18 17 17 16 15 14 12 13 13
37 34 32 25 24 22 21 17 12 10 11 11 8 6 6 6 7 7 8 9 7 8 8 9 8 7 7 8 10 10 11 10 11 12 13 14 14 13 12 11 10 11 10
43 32 26 27 23 21 19 19 19 16 16 15 14 12 10 9 8 8 10 8 11 10 6 6 9 10 7 7 9 7 8 8 8 7 9 9 10 10 11 11 12 10 10
53 47 32 29 28 32 25 22 23 21 21 20 19 18 14 15 13 11 9 11 12 12 7 10 8 7 12 12 9 8 7 9 9 9 8 8 7 8 8 9 10 9 9
54 54 42 34 27 32 30 26 25 21 21 22 19 19 19 18 17 17 14 12 11 11 11 12 13 11 13 15 13 10 10 11 8 11 9 9 8 7 7 7 9 9 8
64 62 49 44 41 34 32 25 33 34 29 25 24 24 22 23 23 21 21 18 16 13 12 13 17 18 17 15 16 13 13 14 11 10 13 11 9 8 8 7 9 11 8
73 69 57 48 45 40 35 31 33 33 36 37 30 28 27 26 25 27 25 23 23 20 17 15 16 17 18 19 20 23 15 17 14 11 10 14 12 10 7 6 5 7 8
72 71 67 55 51 48 41 38 37 42 35 37 34 29 25 28 27 26 24 26 28 26 23 19 18 19 17 18 19 21 18 18 18 16 14 14 15 14 11 7 6 5 5
77 74 72 66 60 54 51 42 38 40 36 40 40 36 37 32 30 30 26 20 17 22 32 27 24 25 24 21 20 20 20 20 22 20 20 17 15 15 15 10 8 5 3
74 76 74 72 71 69 64 55 52 50 45 46 40 34 48 42 39 38 30 28 29 21 27 33 36 35 30 27 24 25 21 24 25 24 25 24 20 17 15 13 11 11 7
77 78 78 79 73 78 71 63 61 59 60 56 54 54 56 51 45 42 34 33 36 36 26 28 35 38 32 29 27 28 28 28 28 27 29 30 26 21 20 19 15 13 12
83 81 84 85 85 87 79 67 67 65 64 59 55 55 53 51 47 48 42 39 36 35 33 28 36 33 33 33 35 36 35 34 33 30 29 30 30 28 23 22 21 19 15
87 88 91 93 92 92 88 79 75 67 70 68 59 59 60 57 55 57 52 50 48 41 46 43 39 37 43 47 46 43 44 43 39 37 34 34 32 31 29 27 25 24 21
94 93 93 95 99 97 96 93 83 81 73 72 73 68 67 67 62 59 60 65 60 51 53 53 55 59 47 53 47 47 44 44 41 38 38 39 37 34 31 31 30 30 26
101 98 97 98 98 99 101 104 103 100 96 84 81 77 76 76 74 69 65 75 69 63 61 63 64 62 63 62 58 53 50 50 43 41 44 43 39 35 34 34 34 37 30
94 100 104 104 103 101 101 100 99 101 101 102 100 94 87 82 83 79 80 78 80 77 73 71 70 71 71 68 65 63 59 55 48 46 46 47 41 39 35 35 37 38 36
97 98 98 102 106 106 104 102 101 101 99 102 105 106 104 98 93 94 89 89 86 83 80 80 80 82 78 72 69 67 65 58 53 50 48 46 46 42 39 36 36 37 39
102 100 99 98 99 103 107 109 107 105 104 103 103 106 108 108 104 97 97 87 90 89 90 89 84 82 82 78 75 72 70 62 59 56 58 52 51 47 42 39 37 36 37
106 106 104 103 103 104 106 109 111 111 109 108 107 106 105 107 108 111 111 105 93 92 89 86 86 86 86 86 85 84 78 70 62 60 63 61 52 48 42 41 38 36 37
108 110 110 109 107 106 107 107 109 111 114 114 113 112 111 109 109 110 112 115 116 106 97 96 82 88 84 85 84 83 82 75 70 66 65 66 60 55 50 45 44 40 39

GFSMW_250_spd_087.txt.gz
Wind_Speed
15 11 7 7 9 10 14 15 16 18 15 10 13 15 17 16 18 24 22 24 24 30 34 37 32 25 26 26 27 28 28 28 26 27 25 21 18 16 15 10 9 9 7
20 13 7 2 5 7 8 12 11 14 18 14 10 11 11 14 14 20 21 23 23 25 29 33 33 24 24 25 26 23 23 21 20 19 17 17 14 13 10 8 9 9 10
18 18 11 5 4 5 4 6 9 11 13 18 11 10 10 12 13 16 20 20 20 22 25 28 30 29 23 23 23 21 18 17 16 15 13 12 10 10 10 10 18 17 16
23 21 14 10 5 6 6 3 6 9 10 12 14 8 5 7 11 9 15 18 17 18 20 22 25 27 25 25 24 23 23 23 22 20 17 15 14 15 17 18 16 16 18
25 24 18 15 10 8 7 7 3 5 7 7 9 11 11 8 8 9 10 13 14 17 17 17 19 22 23 24 22 22 21 21 21 19 18 18 18 17 15 16 15 14 15
30 24 20 17 15 10 11 11 9 4 3 4 6 7 9 10 9 7 10 9 10 14 15 15 14 17 18 20 20 20 19 20 20 20 20 19 18 17 17 17 15 13 14
34 27 23 21 18 17 18 15 14 10 8 5 4 7 7 7 7 6 8 8 12 12 12 13 11 13 15 17 17 18 16 16 16 18 18 18 16 15 14 13 11 11 12
46 41 29 27 25 26 29 25 20 15 15 10 8 7 9 9 8 7 9 8 10 10 9 10 11 12 12 13 15 15 16 16 15 15 16 16 15 12 12 12 11 10 11
48 51 39 29 29 25 27 25 21 20 17 14 15 10 10 12 12 11 10 10 11 11 9 9 8 9 12 16 13 12 17 16 17 14 14 14 14 12 11 11 11 11 12
50 51 46 38 30 26 27 27 24 23 22 18 19 18 14 14 14 12 12 12 11 9 10 11 9 11 10 14 14 13 13 17 15 16 15 14 14 13 12 13 13 13 13
59 53 47 41 32 29 28 29 28 24 22 23 22 21 17 16 14 14 13 13 13 12 12 12 11 11 9 15 12 12 10 13 14 14 16 15 14 13 12 11 13 12 12
61 59 52 49 46 42 33 29 30 29 24 26 21 19 20 21 19 16 17 21 15 13 14 12 13 11 10 12 11 12 13 15 10 10 13 16 16 14 10 9 8 9 7
67 65 61 59 55 54 51 47 35 31 30 32 37 36 27 27 25 27 20 18 21 20 18 18 15 12 10 10 12 13 15 12 16 10 11 11 13 14 14 10 8 7 6
71 68 64 60 61 57 50 47 42 36 31 24 28 38 34 34 29 27 20 24 26 21 19 24 25 20 13 13 15 15 15 14 15 16 11 14 11 13 12 10 8 6 3
74 75 72 68 68 64 58 52 50 45 44 48 48 42 36 35 34 31 25 26 25 29 26 25 21 23 23 23 21 19 18 15 16 18 14 16 14 13 12 11 10 9 6
73 76 79 78 73 72 65 59 59 54 50 49 49 47 48 40 42 42 41 31 29 27 24 22 20 21 22 25 27 25 24 19 18 22 20 18 18 16 16 13 12 9 10
77 74 79 83 82 78 70 66 67 60 58 57 52 49 51 47 47 43 44 40 38 34 38 31 25 22 22 20 31 28 30 24 20 22 22 22 22 21 19 18 17 14 11
82 82 79 79 85 83 84 76 73 67 65 65 63 57 56 56 49 48 49 50 47 44 43 38 35 28 26 26 30 35 32 28 26 27 28 27 25 24 22 23 22 19 20
88 86 83 80 77 83 87 83 81 75 74 73 73 64 62 62 57 57 59 57 56 55 53 50 45 41 37 38 32 34 29 30 32 35 34 32 28 27 28 27 26 26 27
93 92 89 87 85 82 82 87 90 85 83 83 80 75 66 73 72 65 69 66 67 65 57 55 47 50 42 43 36 38 37 38 36 33 33 32 32 30 30 32 29 32 28
100 98 96 94 92 90 87 87 91 95 93 91 91 83 81 80 76 74 68 65 67 67 63 62 56 55 51 51 50 46 45 43 44 49 46 42 44 43 36 37 38 37 32
104 104 101 100 98 97 97 95 93 94 99 99 98 89 85 86 84 81 71 67 70 70 69 69 70 66 63 56 50 55 52 51 51 51 53 51 48 48 44 42 41 42 38
103 104 105 103 102 100 99 100 101 99 99 100 100 101 95 90 87 82 80 74 73 72 75 75 79 76 75 72 67 61 62 59 51 54 58 58 55 54 52 47 45 43 43
105 105 107 108 107 107 107 105 103 105 103 107 107 107 107 101 98 91 85 82 82 78 78 84 80 85 86 82 80 79 75 71 67 66 64 64 64 62 61 55 51 46 43
110 109 107 107 107 107 108 109 110 109 108 109 111 115 114 110 103 99 100 97 96 94 89 82 86 90 87 93 94 89 84 82 81 77 70 73 71 68 65 66 58 55 49
114 112 113 112 109 107 108 108 109 111 113 114 113 116 120 119 117 114 109 108 106 106 107 104 95 86 95 95 94 96 99 98 95 91 85 83 80 77 74 72 68 61 56

GFSMW_250_spd_093.txt.gz
Wind_Speed
7 7 9 9 11 13 16 16 19 21 21 19 21 26 26 29 30 32 35 37 38 36 36 32 29 26 25 25 25 25 24 21 22 21 17 15 13 13 13 13 12 8 5
13 10 10 4 7 9 10 13 14 16 20 21 21 22 24 24 28 30 31 31 34 36 35 34 33 31 29 25 22 19 18 17 16 15 13 11 12 15 17 15 15 13 11
17 14 12 6 4 4 4 7 11 13 15 18 22 22 22 22 23 28 29 28 28 31 32 33 33 31 30 31 27 23 20 17 16 14 13 14 18 16 17 17 15 15 14
21 13 13 12 6 3 2 3 7 11 12 14 18 17 19 19 20 22 27 26 27 27 27 29 29 31 30 30 29 27 23 21 20 19 19 20 18 18 17 17 17 14 14
22 17 16 17 11 7 4 0 3 6 10 12 13 15 14 20 20 21 20 23 24 25 27 26 25 27 30 28 26 27 26 24 22 21 20 20 18 17 15 17 17 16 15
24 23 24 20 14 11 8 5 2 5 7 10 12 11 12 12 19 20 20 19 20 20 21 23 24 23 25 26 26 25 25 25 24 20 18 19 17 16 15 15 17 17 16
33 25 27 21 15 12 13 12 6 4 10 12 10 10 9 12 12 12 16 17 19 18 16 19 22 23 21 23 25 24 24 23 23 21 21 20 18 15 14 15 15 16 16
39 34 30 21 16 15 17 18 15 11 11 11 9 10 9 6 7 9 11 13 16 16 16 12 16 16 20 18 22 22 23 22 20 20 19 19 21 19 16 14 14 14 14
44 40 37 34 27 25 25 24 20 19 15 12 14 12 10 8 6 5 6 7 9 11 14 12 11 12 15 16 16 19 17 20 19 17 17 17 18 19 18 17 14 14 13
49 45 45 45 40 35 36 33 27 24 21 17 18 18 14 13 8 9 3 4 6 6 7 9 10 8 11 12 12 13 14 15 18 18 16 14 15 16 16 17 15 13 13
57 52 52 48 46 40 37 37 35 34 29 28 25 20 19 19 16 9 9 5 6 8 10 10 8 6 6 7 12 8 9 12 13 14 16 16 14 14 14 14 13 12 11
65 62 57 54 52 49 44 38 43 40 37 38 29 22 25 23 15 11 9 11 10 9 8 8 8 9 7 2 3 8 9 8 9 11 11 13 14 13 13 12 10 9 10
70 67 62 59 55 55 52 52 46 44 46 38 35 36 30 26 19 19 18 17 14 15 16 17 12 10 6 8 5 3 2 5 9 7 12 10 9 11 11 11 10 6 5
74 68 68 67 63 60 59 56 49 49 49 39 33 30 32 38 31 28 28 25 24 21 21 22 18 18 13 12 15 11 6 4 4 6 9 8 11 9 9 8 7 7 2
82 80 77 75 74 72 67 62 60 55 53 46 40 39 43 44 41 34 35 33 32 30 25 24 22 21 16 16 16 12 12 3 1 2 4 6 10 8 6 7 7 6 4
81 86 87 83 79 74 72 69 68 67 62 58 53 50 47 41 39 38 39 40 38 35 30 29 25 24 20 18 22 22 18 12 7 2 3 3 1 3 4 5 6 6 7
77 76 76 79 82 82 79 74 70 69 65 59 62 63 58 58 53 50 48 45 44 42 36 33 33 31 29 26 22 25 23 23 17 12 10 15 9 7 4 6 8 10 13
84 81 78 75 74 77 80 81 76 71 70 70 63 68 66 66 65 57 57 59 53 48 47 41 41 40 39 35 33 29 29 28 25 21 15 19 15 16 15 11 7 7 12
88 88 85 82 80 76 76 80 80 81 78 79 75 71 66 70 69 67 62 62 61 58 55 52 47 47 50 49 48 44 40 38 34 33 27 22 26 22 26 25 16 16 8
92 91 90 89 85 83 81 78 77 79 80 81 81 77 78 77 75 73 68 69 65 64 61 60 59 58 56 55 56 58 51 45 43 44 43 44 34 36 34 31 29 20 16
93 93 93 91 90 89 87 85 83 81 80 84 84 83 84 83 80 77 75 72 71 72 71 70 68 67 64 66 62 64 61 56 51 48 45 47 48 45 40 41 41 30 31
94 94 94 93 91 91 91 90 89 87 85 83 84 89 89 86 84 83 79 80 77 74 77 74 72 71 71 72 69 71 70 65 60 57 56 53 52 52 52 50 45 43 39
97 98 97 95 94 94 94 95 95 94 93 92 91 89 91 95 92 92 89 90 89 86 81 77 76 79 75 76 74 75 75 74 72 63 62 61 60 59 59 60 54 48 47
101 100 101 101 101 100 99 98 98 100 98 97 96 96 96 95 95 98 99 96 98 92 92 86 82 74 78 81 79 81 83 81 77 75 70 70 70 66 64 62 64 64 55
106 104 104 105 105 105 105 104 103 103 102 101 102 102 101 101 100 100 99 100 103 104 101 94 92 90 84 81 81 81 83 86 84 81 81 80 78 76 72 68 66 67 63
111 110 110 110 110 110 109 109 109 108 107 107 106 105 105 105 105 105 105 103 102 102 103 108 104 100 97 94 91 87 85 87 82 89 90 77 79 87 81 75 71 72 70

GFSMW_250_spd_096.txt.gz
Wind_Speed
6 6 7 9 10 12 16 18 21 21 21 24 25 27 31 31 31 32 36 37 38 38 36 32 28 25 22 20 20 20 20 20 19 15 13 12 11 12 12 10 7 3 7
10 10 7 7 5 9 11 14 18 20 22 23 24 25 28 30 30 29 30 34 34 36 37 35 33 33 28 24 20 17 15 12 10 10 11 12 16 16 16 15 16 12 13
18 15 11 7 4 4 7 10 14 17 20 21 22 20 24 24 25 26 28 29 31 31 33 33 33 33 32 30 27 23 18 15 13 13 16 16 17 17 15 14 14 14 15
28 23 17 9 6 2 3 6 11 15 17 20 19 19 21 20 21 22 24 27 28 30 28 31 32 31 30 30 30 29 26 22 18 19 16 16 17 17 16 17 18 18 18
29 22 18 13 10 7 2 4 7 11 13 16 16 15 18 21 23 21 21 20 24 26 28 26 28 29 28 27 27 27 26 25 22 19 18 16 16 17 18 17 18 19 19
36 30 23 16 15 12 8 6 3 6 10 13 10 13 13 12 16 19 18 18 20 21 24 25 23 25 25 23 24 24 23 23 24 22 19 15 16 15 16 17 18 20 21
35 29 25 20 21 17 13 11 7 2 4 9 12 8 10 8 7 9 15 15 13 16 19 19 19 19 23 23 23 21 21 21 20 20 20 18 16 15 16 17 17 19 20
42 32 30 23 25 22 17 13 14 8 2 4 6 9 7 7 7 6 8 11 14 14 13 13 15 17 17 20 18 20 20 18 19 19 19 19 17 15 15 17 16 18 16
44 36 34 29 25 24 21 19 17 16 12 9 5 9 9 7 7 4 4 5 7 9 11 9 11 13 14 16 18 16 17 18 17 16 16 16 17 15 15 16 16 15 14
49 44 40 36 32 30 23 24 20 21 22 19 15 16 14 11 9 7 4 3 3 5 7 7 11 7 11 8 12 16 13 13 15 17 15 15 15 15 14 13 13 13 15
54 47 47 43 42 38 36 36 30 28 27 27 23 22 23 19 13 11 9 7 7 7 3 4 6 9 9 8 6 9 11 10 12 14 15 15 15 13 11 11 10 10 10
55 52 54 51 45 43 42 43 31 22 30 31 29 27 24 23 21 15 14 11 11 10 9 8 4 6 5 7 4 2 7 4 6 11 12 13 13 13 11 8 6 6 7
63 57 54 54 51 48 48 47 42 44 36 44 38 36 32 28 25 27 21 18 15 16 14 14 12 11 10 9 9 4 1 4 4 7 7 8 12 13 12 10 7 4 5
66 70 65 59 53 55 54 54 53 54 48 49 47 43 38 32 31 32 30 26 23 22 21 21 19 18 17 16 14 13 10 4 2 2 2 4 5 5 7 8 7 5 2
71 71 72 72 69 64 63 62 61 58 57 51 51 47 44 36 35 36 35 33 31 31 29 28 26 24 23 18 18 17 12 11 9 8 4 5 4 2 1 4 3 5 5
89 86 83 81 77 74 72 72 70 67 61 55 54 54 50 40 42 41 39 41 39 39 38 37 32 29 29 26 21 21 20 18 16 15 12 7 6 4 4 5 8 6 4
95 90 89 85 81 76 78 74 74 71 70 65 60 61 58 54 49 54 47 44 42 39 39 41 36 36 33 33 29 26 22 25 23 20 21 16 12 11 10 7 5 9 5
91 91 90 92 91 83 79 79 78 78 78 74 73 70 67 65 60 57 58 53 50 46 43 41 41 39 39 37 36 36 34 28 31 27 26 26 23 24 19 14 11 14 12
89 89 87 85 84 86 85 82 79 79 80 78 79 75 72 72 71 68 66 62 60 58 57 52 52 52 51 49 46 45 42 41 39 36 36 36 32 35 29 25 23 22 23
92 92 90 88 86 83 84 89 92 93 93 91 87 84 80 78 72 66 69 69 69 69 69 67 65 64 63 59 56 54 52 50 48 47 49 48 44 41 37 35 32 28 25
96 96 94 93 92 90 87 85 84 83 81 78 80 82 84 81 78 75 74 68 70 71 74 70 69 69 67 65 65 62 60 60 57 56 57 55 54 51 51 48 46 42 37
97 98 98 98 96 94 93 92 90 88 85 85 81 81 83 86 87 87 82 80 73 73 69 73 74 73 74 72 72 70 68 68 64 64 63 63 63 59 58 56 51 48 52
97 98 98 99 99 99 98 97 96 95 94 92 91 89 87 86 86 88 91 92 87 88 81 75 74 79 78 78 82 77 75 76 75 73 72 71 71 71 67 66 60 54 50
99 99 98 99 100 101 102 102 102 101 100 100 98 97 96 93 92 89 89 88 92 88 88 87 81 75 74 79 79 78 82 82 80 78 76 73 75 74 72 73 73 68 67
103 102 102 102 102 103 103 103 104 104 104 104 104 103 102 100 99 98 96 94 94 94 95 96 95 94 92 92 85 87 87 81 85 83 82 79 77 79 80 79 78 77 73
108 108 106 106 107 107 108 107 107 107 107 106 107 107 107 106 105 104 103 103 101 100 99 98 100 105 103 99 98 101 99 95 94 89 85 78 87 84 84 87 84 83 82

GFSMW_250_spd_102.txt.gz
Wind_Speed
1 4 9 11 15 16 17 17 21 23 25 28 30 32 32 35 36 39 40 38 36 30 26 25 26 22 13 16 13 11 10 10 10 10 13 13 15 15 16 13 14 19 21
7 4 4 9 10 13 13 16 19 22 23 25 25 29 32 33 36 36 37 38 37 33 29 31 26 20 19 18 14 11 11 11 14 13 13 14 13 13 16 16 21 22 19
15 8 5 5 6 8 11 14 18 20 23 26 29 30 30 29 31 30 39 37 34 36 38 21 29 20 26 24 16 17 16 17 16 17 18 18 17 16 13 18 26 21 17
22 20 10 9 7 1 5 9 13 16 17 16 21 22 25 23 29 24 24 32 32 34 43 36 29 29 20 20 18 16 15 17 19 19 18 20 20 18 15 23 24 18 16
25 29 19 12 9 3 2 7 10 13 15 15 15 21 20 23 19 21 20 26 34 33 38 38 32 28 32 26 23 19 17 17 18 17 21 27 28 20 19 21 19 16 15
33 32 27 23 10 7 6 5 7 12 12 15 15 18 20 20 17 12 17 20 22 32 31 34 39 41 18 28 24 22 21 20 16 14 12 16 22 17 23 24 6 11 19
36 28 24 27 14 12 6 8 8 5 9 14 14 14 16 15 11 13 13 19 15 13 23 28 31 34 32 31 30 25 21 22 21 18 18 15 9 17 8 14 11 3 16
40 25 26 22 23 22 15 12 14 9 7 9 11 12 13 15 11 10 10 10 13 12 22 24 24 27 32 31 29 25 25 25 24 20 19 15 14 16 20 24 11 17 15
39 30 26 28 27 24 24 20 18 16 12 7 1 5 9 13 11 10 9 7 13 2 6 15 18 19 20 22 27 25 29 18 21 19 16 14 9 9 7 6 16 21 10
43 33 30 33 29 28 17 20 23 24 21 13 5 5 8 10 10 11 8 9 4 7 9 8 12 14 14 16 17 23 25 18 16 18 15 14 11 9 6 5 6 5 3
48 39 28 27 34 32 33 38 32 29 23 19 15 10 9 11 10 9 8 9 7 2 3 6 9 9 11 11 14 14 16 19 17 14 14 14 11 8 7 6 5 5 6
64 54 49 29 52 43 36 36 35 37 31 24 20 16 14 12 20 10 6 8 11 14 12 10 10 10 11 10 11 10 8 11 13 12 10 10 11 10 6 4 5 5 6
72 70 66 72 69 62 55 42 38 36 38 34 28 26 20 25 26 20 17 13 12 15 16 17 14 15 15 14 15 14 9 7 9 5 7 6 7 8 7 3 1 6 5
78 75 76 75 69 59 56 53 54 45 42 37 37 38 30 29 24 25 24 25 24 18 19 22 24 22 21 20 18 16 14 15 9 6 3 3 6 1 3 5 4 4 7
77 78 73 68 68 68 64 59 56 47 48 46 43 43 39 39 36 34 32 31 32 30 26 25 25 27 27 23 21 16 19 17 16 14 14 13 7 4 2 4 7 7 4
79 82 79 79 68 66 66 65 59 54 53 54 54 53 49 47 45 42 42 37 38 35 35 29 27 30 31 29 29 30 29 25 22 21 23 20 20 16 13 8 8 9 6
77 80 85 84 79 73 71 69 65 65 59 58 62 61 54 57 52 48 47 47 46 44 44 39 42 40 39 34 34 37 36 31 26 26 25 22 27 23 21 21 20 14 12
82 83 84 84 85 85 83 77 67 63 64 64 66 68 67 65 60 57 57 53 54 53 51 50 49 46 43 43 43 42 41 40 37 30 29 30 29 30 32 29 28 28 26
94 87 84 87 87 88 86 82 81 80 76 70 69 67 72 71 71 67 62 59 57 57 59 59 55 55 54 51 49 51 52 48 45 45 41 38 36 36 32 33 36 34 31
112 103 98 93 88 89 91 89 87 90 85 76 74 76 70 71 71 69 67 64 66 69 68 68 66 62 64 60 58 56 57 58 56 55 55 55 52 50 48 47 45 44 46
113 115 112 106 104 100 95 90 92 93 93 92 87 84 82 81 75 76 75 76 77 79 81 80 77 70 73 75 72 72 67 65 65 68 64 62 63 63 62 60 60 60 56
91 118 119 119 115 110 108 106 103 99 97 95 94 94 90 88 89 89 83 84 85 86 83 85 85 83 84 82 79 78 80 74 73 73 75 74 71 71 70 70 70 67 66
117 117 109 119 123 119 120 119 116 110 106 103 101 100 99 96 92 93 92 88 87 80 81 86 89 90 91 85 85 77 78 76 75 75 75 70 76 78 76 77 77 75 74
117 116 116 116 116 121 124 126 126 124 121 116 110 108 107 105 104 108 107 106 107 108 104 102 98 98 92 93 85 86 86 83 87 81 78 75 75 74 82 83 85 84 78
113 115 118 119 119 119 121 121 123 127 126 124 122 121 119 117 116 116 116 115 111 109 106 107 102 99 97 101 100 100 91 94 94 91 94 87 78 77 80 80 82 84 81
113 113 114 115 115 117 119 121 121 123 124 125 126 125 123 120 118 116 114 113 116 112 113 108 106 104 102 102 102 102 106 108 107 105 100 95 93 100 99 93 90 88 84

GFSMW_250_spd_105.txt.gz
Wind_Speed
1 6 7 11 16 18 22 22 24 24 27 33 33 35 35 42 44 42 45 38 35 32 25 14 15 19 16 13 9 8 8 11 15 14 12 13 12 14 18 22 20 17 15
4 4 5 6 12 14 18 19 22 27 29 31 30 33 32 34 41 42 46 46 36 33 28 21 24 29 21 17 17 16 17 16 17 14 14 14 13 15 23 22 18 17 18
3 2 5 5 6 8 13 15 14 17 21 24 26 29 33 26 33 36 42 47 42 38 33 23 29 28 27 24 20 20 19 19 19 17 17 18 18 21 26 19 18 18 19
12 6 9 6 2 3 7 10 13 14 15 22 24 25 23 23 26 26 32 39 40 44 36 28 35 35 34 29 24 22 22 19 22 30 28 27 30 30 21 18 15 19 22
17 15 13 13 5 4 3 7 7 11 16 19 19 21 21 17 19 22 21 29 34 38 40 40 38 39 40 38 32 27 25 17 18 27 31 28 31 26 22 13 12 14 17
19 19 15 14 14 5 5 6 6 4 13 17 18 17 17 18 16 19 23 17 23 28 32 34 36 40 38 38 32 29 25 17 16 11 16 25 22 15 10 13 12 13 10
24 22 18 12 9 7 6 8 9 5 10 16 17 15 17 16 15 14 16 15 17 22 31 29 28 32 36 32 34 24 30 20 22 21 22 24 24 16 15 13 6 3 10
26 27 22 14 9 10 13 10 11 8 8 4 6 9 12 13 14 13 10 11 7 6 18 20 21 23 28 32 32 29 25 22 19 20 19 15 10 15 17 4 7 2 7
34 28 23 25 17 21 18 12 17 16 13 8 2 4 7 11 10 10 10 11 5 2 5 9 15 18 20 23 23 25 26 23 17 17 15 13 11 5 4 10 7 5 6
38 25 26 20 22 31 21 23 20 25 20 15 9 8 7 8 8 7 7 7 4 6 3 8 10 13 15 16 19 20 22 22 21 15 14 12 9 7 2 2 6 4 6
42 29 22 26 24 38 33 31 23 26 24 21 13 13 9 11 6 6 3 4 4 1 4 6 5 8 12 12 15 14 13 19 20 17 13 11 10 9 4 2 5 9 6
45 38 35 33 27 38 34 28 23 20 26 20 17 16 15 14 13 10 10 6 7 7 6 6 7 7 9 12 11 14 11 13 16 14 9 10 10 7 4 3 3 4 5
46 41 37 33 37 35 45 34 41 29 25 26 25 23 25 23 16 20 21 19 16 12 11 10 7 13 12 15 15 14 11 12 12 11 7 7 8 8 4 1 4 6 8
55 47 48 36 30 25 29 39 43 38 33 31 33 37 35 34 31 23 27 25 23 20 21 20 17 15 15 13 18 14 11 10 12 11 10 11 6 3 1 3 4 4 3
58 59 59 54 32 32 31 57 58 54 53 45 50 47 41 43 43 38 34 32 29 29 32 24 22 20 20 16 17 16 15 18 14 16 12 14 18 14 9 8 9 10 8
65 64 59 61 50 74 65 53 55 61 64 58 52 55 52 49 50 47 43 41 40 39 40 39 33 28 26 23 27 25 24 25 25 20 17 22 20 21 21 21 17 13 14
64 65 66 66 73 80 83 85 83 81 74 74 68 60 59 53 52 52 51 47 46 45 45 42 42 40 35 36 35 34 33 31 35 31 27 26 23 24 24 27 26 23 24
73 82 83 79 77 80 81 80 79 77 72 66 65 63 60 58 58 59 60 60 53 52 51 49 46 48 50 45 43 41 40 39 38 40 38 34 31 32 30 31 31 30 31
88 87 87 87 85 89 88 83 78 81 77 78 71 68 67 67 66 66 65 67 67 56 59 58 56 53 53 54 54 54 51 47 47 46 44 44 44 42 41 41 37 35 38
96 92 93 95 97 102 95 90 94 88 81 87 87 83 78 77 74 74 72 73 71 72 71 68 67 63 65 64 62 58 61 60 57 57 57 55 56 56 55 53 52 51 51
99 92 99 103 102 92 92 87 88 89 92 87 81 80 78 81 80 76 75 77 79 77 77 78 75 75 70 67 66 66 72 70 68 67 65 67 64 65 66 65 63 64 62
106 105 92 111 108 101 101 100 96 96 95 97 95 92 94 91 91 88 90 90 87 85 83 78 75 73 74 74 76 76 77 77 76 78 74 72 76 75 73 70 70 73 72
113 113 119 107 106 107 110 109 106 108 104 105 99 99 99 96 97 98 95 88 89 89 89 84 83 83 78 80 82 85 84 85 84 83 83 83 85 81 82 79 76 73 73
117 118 119 121 121 114 110 113 119 117 112 110 110 107 108 105 106 103 102 100 99 99 97 98 95 96 92 89 86 84 88 87 80 77 81 86 90 85 87 84 84 83 80
118 119 120 115 117 119 120 114 114 124 120 121 124 120 116 111 114 115 113 108 104 102 106 105 107 104 105 106 100 95 94 89 91 94 98 100 96 95 90 92 91 88 90
112 111 119 122 124 123 118 120 128 128 127 127 127 128 130 128 125 122 122 121 121 117 118 114 111 114 111 112 113 112 110 109 109 110 111 112 108 105 104 98 98 100 97

GFSMW_250_spd_108.txt.gz
Wind_Speed
8 7 9 12 15 18 21 23 25 29 32 36 39 42 46 45 41 35 35 34 31 24 27 28 23 18 14 12 10 14 13 10 11 14 15 18 21 25 20 18 18 22 22
7 7 9 10 11 14 14 16 18 21 26 27 28 31 35 43 49 38 38 37 38 38 36 34 28 23 23 22 20 19 17 15 15 17 19 19 21 18 21 18 24 24 18
9 8 7 8 6 8 11 14 16 17 20 20 21 25 29 30 35 41 41 40 41 43 43 42 38 34 29 27 26 32 31 26 25 26 27 24 25 23 21 20 17 16 21
15 9 2 7 6 4 4 9 13 12 15 16 17 21 26 26 26 31 36 40 38 43 41 44 40 35 31 27 26 28 34 33 32 30 31 27 26 24 19 16 13 17 27
17 14 6 5 1 4 1 3 6 9 11 14 16 18 19 24 25 26 28 35 37 38 39 41 41 35 34 31 28 25 22 30 29 27 28 22 21 16 16 14 11 18 17
20 16 10 9 2 1 3 3 2 7 12 13 15 14 18 18 17 21 23 22 27 34 36 34 37 39 37 33 32 28 24 24 25 26 24 17 9 10 15 14 12 12 15
24 20 17 11 6 6 6 8 7 7 10 10 15 15 14 13 13 14 14 14 14 20 30 30 31 34 35 36 34 28 25 24 21 23 17 13 11 10 10 9 11 12 15
28 25 22 15 12 12 12 9 13 8 5 4 6 9 12 12 11 11 10 9 8 11 17 23 24 27 29 30 32 32 27 20 18 17 11 7 10 7 2 8 12 9 11
30 33 29 19 16 14 16 18 13 12 12 8 3 1 6 7 8 9 6 5 8 12 13 16 19 20 24 23 25 27 29 27 17 12 11 11 12 6 4 6 12 10 11
34 33 29 22 25 25 23 21 18 13 15 16 14 8 6 3 5 5 5 4 8 8 8 10 11 11 15 18 18 17 22 23 24 16 11 10 5 2 3 6 6 6 11
45 38 34 29 28 24 23 26 23 16 16 22 22 17 13 8 4 4 3 3 5 7 6 6 7 7 10 13 15 16 16 17 19 18 19 14 9 5 5 4 5 5 7
44 40 33 35 30 22 18 27 22 15 19 20 23 26 19 18 14 7 8 6 5 10 6 4 3 2 6 9 12 14 11 11 11 14 14 14 15 13 9 8 10 10 10
44 36 38 41 30 26 27 35 39 30 19 18 22 24 25 25 21 17 18 19 19 15 11 6 6 10 8 7 5 5 6 6 9 9 9 11 12 14 14 12 13 11 11
50 39 43 41 48 42 34 35 43 37 29 32 30 29 32 29 26 25 26 27 27 25 19 18 18 15 12 10 12 9 10 10 8 6 7 12 12 13 12 10 12 14 14
52 49 48 51 48 42 38 38 40 39 39 43 41 39 39 34 31 32 33 35 36 36 32 25 24 26 25 20 18 13 12 14 16 16 12 14 16 15 16 16 14 14 15
58 53 41 47 53 42 39 40 44 47 49 46 52 55 49 49 43 43 40 40 47 47 45 38 34 35 36 34 29 25 22 21 22 20 21 19 19 23 23 21 23 25 24
67 59 63 55 46 50 47 29 37 33 34 48 56 56 54 52 52 48 49 51 54 56 52 49 43 37 37 39 40 35 34 34 33 29 28 29 29 27 25 25 26 27 27
65 55 61 67 62 52 56 58 55 61 61 55 58 66 65 65 63 63 64 57 59 60 56 53 52 47 45 45 45 44 43 42 42 42 44 43 37 34 32 33 35 35 33
76 59 62 62 63 63 67 70 58 60 62 69 73 71 73 73 71 76 72 67 64 62 60 58 59 57 53 52 50 50 51 50 49 51 55 55 49 47 45 47 46 41 44
83 80 71 71 72 72 76 78 87 87 84 82 74 80 87 93 89 85 79 73 68 64 63 62 63 63 69 59 58 60 59 60 60 59 60 62 62 60 56 56 55 56 57
94 88 83 80 79 81 79 82 85 82 85 84 82 79 85 89 84 79 79 78 73 77 74 73 77 76 71 73 69 69 69 67 70 73 72 70 68 66 68 70 66 65 64
96 95 97 95 91 90 91 87 92 96 99 97 96 92 83 89 91 93 99 98 98 93 88 87 84 81 78 76 79 78 77 76 79 76 80 74 70 72 75 77 76 72 74
116 108 104 104 104 104 101 99 100 100 104 106 105 107 106 107 106 106 99 97 102 92 88 83 84 86 84 80 81 86 86 86 85 81 82 78 77 78 81 83 85 85 83
103 120 120 115 113 113 110 109 107 105 107 107 108 106 108 107 104 105 104 103 96 96 84 86 92 91 87 86 87 87 90 91 88 83 87 86 86 85 84 86 87 91 90
104 105 112 114 124 122 119 119 114 113 113 113 113 111 113 114 115 112 106 107 103 104 102 101 96 97 99 103 100 97 97 90 94 91 87 88 90 85 92 90 92 96 90
97 94 100 114 109 114 128 129 126 125 126 128 123 124 122 121 121 121 114 110 110 115 116 113 114 111 115 109 105 103 103 103 103 103 104 108 110 109 107 105 106 107 107

GFSMW_250_spd_111.txt.gz
Wind_Speed
7 11 10 14 17 19 20 25 29 28 33 34 41 41 38 41 44 42 33 33 30 29 24 22 19 18 19 19 18 18 18 18 19 20 22 28 23 20 19 19 28 37 33
5 10 8 11 14 17 17 18 22 23 27 31 31 35 40 43 42 45 44 40 38 34 32 32 32 30 31 28 25 24 22 23 24 23 29 26 20 17 18 17 25 34 35
9 9 7 7 8 12 14 16 15 18 21 28 29 28 31 35 41 44 44 41 42 39 35 33 33 33 32 32 31 29 27 28 28 27 31 24 18 18 14 22 31 25 18
12 10 7 7 7 6 9 11 10 13 18 21 24 27 28 28 32 38 41 38 38 42 41 39 31 29 28 30 35 35 33 32 27 25 23 21 18 18 15 25 19 16 15
18 13 7 6 5 3 4 7 10 12 15 16 17 16 19 23 23 25 29 34 35 38 37 40 39 32 30 28 31 32 31 27 26 21 19 15 13 15 17 16 14 21 23
24 18 12 6 6 4 4 4 9 14 15 14 16 15 14 15 17 17 20 25 30 31 33 38 42 41 33 29 24 26 29 25 23 20 13 10 8 14 14 14 14 17 18
26 23 19 10 6 7 7 8 11 14 13 13 13 14 13 11 13 17 19 19 20 24 26 30 32 36 38 32 25 20 20 23 20 17 14 11 8 6 8 12 16 16 15
32 28 23 16 13 10 12 13 12 10 9 7 7 11 11 9 9 12 15 16 16 19 21 23 27 28 29 32 34 23 15 15 10 9 8 5 3 2 12 17 16 16 17
37 29 29 19 19 13 15 14 15 12 10 7 4 2 7 6 6 10 11 12 9 14 15 17 17 19 22 25 25 26 27 15 9 6 6 3 1 5 10 13 14 13 14
40 34 37 28 22 21 17 17 16 15 15 14 11 8 4 3 2 4 8 11 10 10 11 11 12 14 17 20 18 19 21 20 19 19 13 5 6 8 6 8 12 13 14
38 42 33 32 29 26 25 22 19 22 20 15 16 17 12 9 7 3 2 5 7 9 8 4 5 6 10 15 15 15 15 15 16 16 16 17 18 20 17 13 11 11 13
42 41 43 35 32 30 26 27 24 25 22 14 13 17 18 15 13 12 10 6 1 6 8 7 4 4 4 3 3 5 5 7 7 7 8 12 15 19 19 19 20 18 17
46 47 44 43 38 35 32 28 27 29 22 18 18 19 13 15 22 21 18 15 12 9 7 11 10 6 8 7 3 6 5 0 6 6 6 4 8 10 11 13 13 16 19
48 47 47 50 44 39 38 32 30 35 33 22 19 22 18 26 31 30 31 27 20 17 17 15 16 18 19 16 13 10 13 8 9 10 11 10 11 13 16 19 20 21 22
52 51 51 51 45 42 39 39 33 34 34 31 35 35 30 36 40 38 36 33 29 26 25 25 25 27 29 31 29 30 19 14 13 13 14 17 15 13 15 16 21 21 22
57 53 53 53 46 47 41 43 50 48 44 38 41 42 41 45 45 44 43 42 37 34 31 32 33 37 37 36 40 37 35 25 26 26 25 23 20 21 23 23 22 21 25
62 60 58 54 51 52 46 47 48 44 40 41 42 48 50 48 56 56 54 53 48 44 41 38 38 41 41 41 41 44 41 35 34 34 33 35 32 31 32 29 29 30 30
63 68 62 58 60 56 55 53 51 43 36 42 47 50 58 63 66 60 59 61 60 56 53 51 45 46 46 45 45 46 46 45 41 41 45 43 43 44 43 45 46 40 40
74 73 75 71 65 54 51 49 52 50 46 48 49 49 55 54 58 64 65 63 62 62 67 57 55 54 51 52 50 50 54 51 48 48 50 51 51 51 52 54 53 54 57
73 73 76 79 76 66 63 53 49 56 61 27 45 62 60 57 61 61 64 69 72 72 72 71 68 66 67 64 57 57 58 60 59 58 62 61 59 61 60 60 62 64 63
75 75 76 82 78 76 73 72 69 62 60 63 60 51 51 62 65 71 72 76 82 79 80 78 78 78 77 72 62 64 75 76 70 71 71 75 72 70 68 73 67 66 65
76 82 76 84 90 87 84 83 74 76 72 76 68 80 75 79 76 77 81 82 83 82 81 83 83 83 82 79 78 73 78 86 83 79 83 80 78 72 76 73 76 73 74
84 86 83 80 87 90 89 88 88 81 86 90 89 91 92 89 84 83 89 91 90 92 94 94 93 90 87 88 86 91 95 89 85 88 87 82 82 82 80 81 80 79 78
106 99 96 92 90 90 90 93 98 94 92 95 96 100 102 103 102 105 103 105 103 96 92 94 97 100 102 100 96 89 92 85 85 90 88 83 89 94 88 90 90 88 86
113 108 106 105 105 98 97 97 97 100 103 105 107 104 106 113 114 115 114 109 110 111 106 106 107 107 105 105 104 104 102 101 99 103 92 92 95 94 99 97 92 94 96
109 115 118 118 115 113 113 113 110 108 110 110 111 112 114 113 114 118 119 119 117 114 115 115 115 117 117 114 112 113 111 104 101 107 103 103 102 102 104 103 107 102 102

GFSMW_250_spd_114.txt.gz
Wind_Speed
9 14 18 21 20 15 17 28 30 35 38 39 41 42 39 38 36 31 29 27 28 27 26 26 26 26 25 27 25 26 29 30 33 30 25 20 30 34 32 28 18 18 24
9 12 15 18 19 17 14 20 24 31 31 34 37 43 43 44 40 37 32 28 35 35 34 32 31 30 31 31 33 32 33 35 32 26 21 17 22 27 25 16 11 15 22
7 13 11 12 13 15 15 16 21 22 25 28 33 34 40 43 43 42 43 32 26 26 30 30 31 30 32 35 39 39 36 35 29 21 21 20 27 21 20 23 20 20 23
8 8 10 9 8 10 11 9 14 14 17 21 22 27 30 34 37 39 41 39 36 27 25 28 28 36 38 41 39 37 34 31 26 24 21 22 21 19 17 19 21 23 24
13 11 5 4 7 6 8 8 9 9 12 14 17 20 25 25 29 32 35 37 39 38 33 31 33 36 37 36 35 31 26 24 19 18 17 15 17 15 14 17 18 16 21
20 18 11 4 3 5 6 7 8 9 11 13 14 16 18 22 24 24 27 29 32 36 39 35 31 28 32 31 27 26 23 19 15 12 11 13 13 12 16 16 17 17 18
26 24 18 10 8 4 7 10 13 11 11 12 13 13 17 18 20 21 21 25 25 27 30 34 35 31 25 24 24 24 20 17 12 9 9 8 7 11 17 20 20 17 19
27 28 25 19 13 6 7 15 15 11 10 11 11 12 12 13 16 15 16 20 20 21 23 24 28 29 30 24 16 15 14 10 9 8 5 5 6 10 14 17 20 22 22
32 31 30 27 22 11 10 17 17 13 9 7 6 7 10 9 12 12 11 13 17 17 18 18 21 21 22 23 24 15 10 8 8 6 6 7 9 10 13 13 16 17 19
35 36 36 29 26 16 16 18 20 17 14 12 9 4 2 3 3 9 13 12 13 11 9 12 16 20 18 18 17 17 17 16 17 17 15 19 19 16 14 13 14 16 19
38 38 39 35 31 20 19 20 19 19 17 16 13 15 13 8 3 2 7 11 10 9 8 6 7 11 11 11 11 10 10 10 12 12 14 13 13 17 14 17 18 19 22
46 43 45 39 34 32 27 27 24 23 22 20 20 11 13 11 14 8 8 8 7 1 3 6 3 4 2 3 3 4 5 6 7 7 6 7 8 9 11 15 15 16 18
48 47 41 43 38 36 33 34 29 27 25 25 23 21 16 15 17 16 12 15 13 8 4 3 1 2 3 4 5 10 9 15 11 9 7 9 11 12 12 11 12 14 16
58 52 48 43 43 41 37 39 37 34 30 31 29 26 17 18 21 19 17 20 22 21 15 12 16 11 7 10 11 14 18 21 12 11 11 11 12 13 13 13 14 16 16
61 58 52 52 46 42 45 45 40 36 33 30 36 32 23 18 16 23 29 31 31 31 27 26 21 23 24 20 18 20 21 26 25 18 19 18 20 17 15 17 18 17 18
57 58 60 56 50 47 47 50 48 43 40 38 40 41 35 34 32 33 36 43 39 38 36 34 33 28 28 29 27 25 25 28 27 29 28 25 24 26 26 24 24 22 22
65 62 61 58 54 52 52 57 53 49 44 44 39 44 40 40 37 37 46 44 46 48 46 43 42 40 41 35 35 33 32 31 32 32 35 38 33 25 29 35 39 38 40
72 67 67 65 61 53 56 56 58 53 52 50 48 48 49 49 47 47 48 51 55 56 52 53 53 57 53 51 45 43 38 37 37 39 39 41 42 42 40 47 50 46 46
78 75 68 68 63 62 61 57 58 56 57 54 50 50 51 45 43 48 53 58 63 60 62 64 63 64 63 61 60 53 50 46 47 46 52 49 53 49 52 51 51 54 53
76 77 73 70 72 65 63 58 51 57 56 58 54 53 50 46 46 54 53 61 65 65 69 72 70 70 69 69 64 59 62 62 60 60 58 54 52 55 60 56 57 61 63
68 68 75 75 72 67 69 65 64 59 56 55 62 61 54 53 51 58 63 65 69 69 71 71 73 74 73 71 69 69 71 73 72 74 74 68 64 66 65 68 71 71 68
76 77 73 73 73 70 73 75 75 74 61 66 55 31 50 45 54 66 70 69 73 74 75 75 74 72 71 71 74 75 78 79 77 77 78 79 81 80 79 77 83 80 77
78 78 79 78 79 83 80 78 76 79 78 70 71 69 64 54 57 58 71 74 75 78 79 84 81 76 77 79 81 82 84 83 85 86 86 91 90 89 90 91 89 90 90
86 85 80 81 85 82 82 89 92 89 84 78 74 70 70 83 85 65 63 73 82 86 88 88 87 85 84 86 87 89 89 93 94 97 94 95 94 93 93 95 91 89 90
97 89 87 89 88 89 94 90 92 94 92 91 90 90 83 80 92 84 83 86 85 93 93 93 97 101 100 98 97 96 98 100 100 100 93 95 96 90 90 90 94 98 96
95 97 96 95 93 91 90 94 99 102 99 100 100 99 104 106 103 102 102 104 103 102 105 104 104 104 105 107 106 107 110 113 116 114 112 114 111 114 113 111 112 117 118

GFSMW_250_spd_117.txt.gz
Wind_Speed
11 11 12 12 22 27 28 30 34 38 42 44 40 37 26 29 30 28 28 25 21 21 24 27 29 35 34 35 40 41 38 34 29 35 36 31 24 17 13 19 21 20 21
10 10 11 9 14 21 25 24 26 31 37 41 41 40 36 31 30 30 30 30 23 22 22 30 33 36 36 40 44 40 35 30 26 24 29 19 15 13 17 23 27 26 24
13 15 9 11 10 15 17 21 22 26 28 32 36 38 39 35 32 25 24 24 25 25 28 30 37 42 45 43 41 36 31 25 22 23 24 19 23 24 19 21 24 23 23
13 14 10 8 8 10 10 11 14 17 20 26 26 26 31 36 36 37 31 27 27 29 34 36 40 44 42 39 36 31 26 25 24 25 20 20 18 17 15 15 18 20 23
19 14 14 9 7 7 9 7 7 11 18 18 24 24 26 28 32 35 36 34 33 32 35 38 40 41 38 35 30 27 24 23 27 18 17 16 18 15 14 14 14 17 18
23 19 16 10 9 7 8 8 7 10 12 16 20 22 20 22 27 29 32 36 34 31 30 35 34 30 27 26 23 22 19 18 16 14 12 10 13 16 18 16 15 18 21
28 24 19 12 11 10 9 11 11 11 13 17 18 18 18 20 19 23 26 27 29 30 29 24 24 22 22 21 18 17 15 10 7 9 10 6 8 13 17 21 22 21 21
31 30 25 18 16 12 13 17 13 12 12 13 16 16 17 16 17 19 21 25 24 25 27 28 22 17 17 19 16 15 11 8 6 5 4 7 10 12 12 16 17 17 18
35 32 30 26 21 15 15 17 16 13 10 8 10 12 15 13 16 15 16 20 20 20 19 20 20 21 19 13 8 6 4 6 9 9 10 12 11 10 10 13 14 20 22
41 36 35 33 30 21 19 20 19 18 15 11 8 6 6 8 9 14 14 13 14 16 17 17 16 16 16 17 17 15 17 19 18 16 17 17 16 14 16 18 20 20 22
50 43 40 37 34 29 24 22 27 20 19 17 14 12 8 5 7 9 10 11 9 11 9 12 12 10 10 9 8 10 10 11 10 9 9 8 9 13 13 13 15 17 17
52 47 43 42 39 33 28 26 26 28 24 22 17 14 9 10 7 12 11 12 10 7 8 7 9 7 3 5 7 6 6 7 5 7 8 7 8 11 11 12 13 14 16
54 49 46 45 39 38 35 32 29 28 29 24 22 17 16 14 15 15 17 14 13 10 9 9 3 5 4 2 1 4 7 11 11 9 8 8 9 7 10 11 12 14 15
55 51 48 45 43 40 40 39 34 32 33 31 26 25 24 24 23 22 21 21 18 15 15 14 12 10 12 10 9 13 11 11 8 11 12 11 12 12 10 12 14 14 16
61 59 61 52 48 47 46 41 44 39 35 37 32 29 29 33 28 23 23 24 24 21 21 21 21 23 22 22 20 21 18 17 14 12 12 16 19 20 19 20 17 15 16
62 62 59 58 54 49 53 48 45 42 41 41 40 35 33 38 36 30 30 26 27 31 30 29 29 29 29 29 30 28 28 28 26 24 22 21 22 22 24 22 24 21 17
72 65 58 57 57 53 52 55 54 50 49 43 44 42 37 37 43 38 36 34 33 35 38 39 42 40 39 39 40 38 38 37 36 34 34 33 33 27 28 32 35 38 38
75 71 68 64 70 63 57 57 56 53 52 49 50 47 44 43 41 47 44 40 41 43 46 49 46 49 51 49 48 48 49 49 49 47 45 42 41 37 41 42 40 42 46
82 76 68 68 64 64 67 62 60 55 55 54 56 55 51 49 48 50 50 50 50 48 51 51 58 56 57 54 58 59 59 59 57 56 56 56 53 53 53 50 56 58 54
78 83 85 76 71 67 68 65 64 64 60 58 58 58 48 56 56 55 55 53 52 55 55 61 60 59 60 61 62 67 68 64 65 65 64 65 60 56 61 61 65 64 60
77 81 89 84 80 73 72 70 69 67 63 60 58 61 61 62 62 63 60 60 58 58 62 64 63 67 64 65 64 66 69 70 71 68 69 69 64 64 68 71 67 67 70
95 78 86 87 85 78 77 76 75 73 71 69 66 68 66 68 66 62 60 60 59 70 72 70 70 73 74 73 74 73 70 71 76 77 72 72 68 71 73 74 77 77 73
96 76 78 90 86 80 79 79 80 78 74 73 70 69 67 69 66 60 66 68 71 65 68 71 75 79 72 76 79 80 81 79 78 80 83 79 81 81 81 82 80 81 85
81 85 72 72 84 79 77 75 74 79 79 78 76 76 74 69 60 49 55 64 69 73 71 76 78 80 83 83 84 84 89 88 88 88 89 89 88 88 84 89 92 93 93
79 82 84 82 79 80 84 85 82 79 78 79 80 81 83 84 74 69 71 70 78 80 82 82 79 81 83 82 85 89 92 93 95 96 94 94 92 93 95 99 99 103 99
85 82 85 86 84 81 81 79 82 87 82 82 84 83 84 83 89 92 94 86 85 87 91 95 91 91 92 91 91 94 98 102 104 104 103 106 107 110 111 111 109 109 112

GFSMW_250_spd_123.txt.gz
Wind_Speed
1 6 11 15 19 27 31 36 35 34 26 24 26 24 16 12 14 16 18 18 23 23 26 29 32 33 35 36 33 31 25 19 21 21 22 23 21 21 21 23 20 20 22
8 3 8 11 14 20 23 27 28 30 31 25 23 20 23 18 15 15 21 22 24 25 27 28 27 31 38 35 30 29 22 21 21 23 27 25 23 21 24 22 20 20 23
13 9 9 10 11 13 15 19 23 28 31 29 26 25 23 23 19 19 16 19 22 23 23 25 34 39 36 29 30 28 24 18 20 24 25 17 21 17 27 25 22 22 23
17 12 10 11 11 9 11 12 17 26 29 33 32 30 29 28 23 20 19 20 21 27 29 37 41 37 32 31 28 26 23 18 19 21 18 11 20 7 7 1 16 19 19
20 18 14 11 11 11 9 8 10 16 24 26 29 29 29 29 26 21 21 27 29 34 40 40 36 32 25 26 27 22 18 19 20 20 19 17 15 14 20 8 17 1 13
24 22 18 15 11 12 11 11 8 13 15 17 20 24 27 29 29 23 27 32 36 39 37 33 30 24 20 19 19 15 15 13 12 17 18 19 21 17 14 15 14 13 12
28 25 21 17 14 12 13 15 13 12 12 12 14 19 26 27 28 30 32 35 35 33 31 26 23 20 20 20 19 15 8 6 6 10 14 15 16 14 12 13 17 23 24
33 28 23 21 17 15 14 17 18 16 14 12 12 17 20 24 27 25 25 28 28 23 19 18 18 19 15 15 14 7 5 6 5 5 10 13 10 13 16 18 18 19 18
39 36 31 27 21 17 17 18 18 19 18 17 16 16 17 18 22 21 20 20 19 15 15 16 16 15 10 9 8 4 5 7 8 12 15 14 16 16 16 16 14 12 14
43 40 33 32 28 20 21 22 22 21 21 21 19 18 17 17 17 16 18 19 18 17 14 12 12 11 8 8 10 11 14 16 16 15 14 12 11 10 9 9 8 7 9
48 47 39 38 33 27 24 26 26 23 19 21 20 20 20 19 18 18 16 16 15 12 13 14 14 11 10 10 15 14 12 11 9 7 7 6 5 5 5 6 6 8 9
56 55 46 43 40 35 29 29 30 29 25 21 18 17 16 18 20 18 16 14 13 13 12 11 11 7 7 10 10 10 8 7 5 4 2 4 4 5 7 7 4 10 10
65 60 51 47 46 42 37 30 33 32 29 28 24 21 19 15 15 17 17 18 17 17 16 15 12 10 11 10 11 8 8 9 7 2 5 6 5 7 7 7 9 10 10
72 64 54 49 51 48 43 39 33 34 35 33 30 27 24 18 14 14 16 21 20 20 20 20 19 18 19 16 16 13 14 12 9 10 10 12 12 11 13 13 14 15 19
77 68 63 57 55 52 50 46 41 37 37 36 34 33 29 25 23 22 22 21 25 23 23 24 23 22 25 23 22 21 18 19 18 20 18 16 16 13 18 21 22 21 22
78 70 58 67 60 56 51 50 46 46 44 39 37 36 36 33 30 28 27 27 28 28 33 32 30 29 27 26 27 27 28 29 29 28 28 27 28 28 24 27 27 32 33
80 74 72 71 69 59 53 53 49 49 48 47 46 41 38 40 39 35 34 33 31 34 34 34 37 38 38 36 36 35 35 35 37 38 36 37 39 37 41 42 43 44 44
79 79 72 69 67 64 61 57 54 52 52 50 48 47 43 41 42 42 41 40 37 38 38 39 38 40 41 41 44 45 44 44 45 45 47 47 48 50 51 51 50 52 54
83 81 78 79 67 67 68 62 62 59 57 52 53 52 54 52 48 46 44 43 46 44 43 41 42 46 49 50 53 54 56 52 50 49 49 50 52 54 53 56 56 57 58
86 85 83 80 72 74 68 66 64 62 59 58 54 59 57 60 58 56 52 50 48 48 49 50 50 53 52 53 56 60 62 61 61 61 61 61 59 58 60 63 63 67 69
91 86 93 79 82 79 72 71 67 67 60 60 61 68 67 63 62 63 61 58 56 55 53 52 52 57 60 61 61 63 63 65 67 68 68 70 70 71 71 70 69 72 69
97 96 97 93 84 80 77 74 69 67 65 62 68 70 74 72 68 67 68 65 61 58 60 58 53 67 69 69 70 73 70 69 68 71 74 75 78 79 80 79 76 79 76
97 100 95 97 87 75 83 81 76 78 67 68 65 73 73 70 73 72 74 75 73 71 71 72 73 73 62 69 72 75 80 77 77 77 79 81 83 82 85 83 83 83 81
96 100 98 98 99 92 74 82 86 82 81 80 76 74 72 79 79 77 78 75 74 74 72 76 78 79 77 77 79 75 71 80 82 84 85 84 87 89 89 89 83 86 89
93 92 102 101 99 92 78 87 85 84 80 86 91 94 90 89 86 78 83 85 81 83 84 88 86 87 86 82 83 82 89 91 92 88 98 95 90 90 90 88 90 93 92
87 86 94 104 106 101 89 73 89 90 87 86 85 88 85 85 87 90 90 91 91 91 91 90 91 92 89 87 89 91 94 97 99 101 98 101 95 94 94 95 96 97 99